Miscellaneous Local Product
Issued by NWS Hastings, NE

Home | Current Version | Previous Version | Graphics & Text | Print | Product List | Glossary On
Versions: 1 2 3 4 5 6 7 8 9 10 11 12 13 14 15 16 17 18 19 20 21 22 23 24 25 26 27 28 29 30 31 32 33 34 35 36 37 38 39 40 41 42 43 44 45 46 47 48 49 50
589
AXUS43 KGID 171802
MISGRI

GID CWA HOURLY WEATHER ROUNDUP
NATIONAL WEATHER SERVICE HASTINGS NE
100 PM CDT TUE OCT 17 2017

NOTE: "FAIR" INDICATES FEW OR NO CLOUDS BELOW 12,000 FEET WITH NO
SIGNIFICANT WEATHER AND/OR OBSTRUCTIONS TO VISIBILITY.

...SOUTH CENTRAL NEBRASKA...

CITY           SKY/WX    TMP DP  RH WIND       PRES   REMARKS
GRAND ISLAND   SUNNY     75  38  26 CALM      30.08F
HASTINGS       SUNNY     73  42  32 CALM      30.09F
KEARNEY        SUNNY     73  38  27 CALM      30.10F
ORD            SUNNY     74  40  29 S3        30.07F
YORK           SUNNY     68  43  40 CALM      30.08F
AURORA         SUNNY     72  41  32 CALM      30.08F
LEXINGTON      SUNNY     72  40  30 CALM      30.11F
HOLDREGE       SUNNY     73  37  27 CALM      30.10F
HEBRON         SUNNY     68  41  37 S6        30.09F

...NEBRASKA PANHANDLE...

CITY           SKY/WX    TMP DP  RH WIND       PRES   REMARKS
CHADRON        SUNNY     70  19  14 N3        30.06F
ALLIANCE       SUNNY     71  15  11 W15G24    30.10F
SCOTTSBLUFF    SUNNY     69  27  20 W6        30.12F
SIDNEY         SUNNY     75  17  11 SW20G26   30.16F

...WESTERN AND NORTH CENTRAL NEBRASKA...

CITY           SKY/WX    TMP DP  RH WIND       PRES   REMARKS
VALENTINE      SUNNY     77  30  17 SW13      30.04F
AINSWORTH      SUNNY     72  35  25 SW13      30.07F
ONEILL         SUNNY     74  44  33 S7        30.06F
BROKEN BOW     SUNNY     73  41  31 S6        30.09F
IMPERIAL       SUNNY     74  22  14 SW3       30.13F
NORTH PLATTE   SUNNY     72  41  32 S5        30.10F
MCCOOK         SUNNY     71  38  29 VRB3      30.13F

...EASTERN NEBRASKA...

CITY           SKY/WX    TMP DP  RH WIND       PRES   REMARKS
NORFOLK        SUNNY     71  42  35 S3        30.04F
SO SIOUX CITY  SUNNY     68  46  45 SE7       30.05F
TEKAMAH        SUNNY     67  42  40 S6        30.07F
COLUMBUS       SUNNY     68  45  43 S5        30.08F
ALBION         SUNNY     74  38  27 CALM      30.07F
OMAHA EPPLEY   SUNNY     65  44  46 S10       30.09F
OFFUTT AFB     SUNNY     66  45  46 S7        30.08F
MILLARD        SUNNY     67  45  45 S5        30.08F
LINCOLN        SUNNY     67  44  43 S7        30.09F
NEBRASKA CITY  SUNNY     67  46  46 S12       30.10F
BEATRICE       SUNNY     65  46  49 S9        30.10S
FALLS CITY     SUNNY     68  44  42 S14       30.10F

...NORTHERN KANSAS...

CITY           SKY/WX    TMP DP  RH WIND       PRES   REMARKS
GOODLAND       SUNNY     74  26  16 SE7       30.16F
HILL CITY      SUNNY     76  35  22 NE5       30.12F
NORTON         CLEAR     75  28  17 SE3       30.11F
PHILLIPSBURG   SUNNY     75  34  22 SE3       30.10F
SMITH CENTER   SUNNY     70  43  37 CALM      30.11F
HAYS           SUNNY     73  40  30 CALM      30.11F
RUSSELL        SUNNY     71  44  37 SW8       30.09F
CONCORDIA      SUNNY     67  44  43 S9        30.10F
SALINA         SUNNY     70  47  43 S12       30.12F
TOPEKA         SUNNY     71  43  36 S15G22    30.13F



USA.gov is the U.S. government's official web portal to all federal, state and local government web resources and services.